User: anonymous   Login
Location: Unnamed
(23.5608°S, 46.6833°W)
Time: 12:32:26
(UTC-03:00)
Language:

XW-2D - Orbit

View from above orbital plane
View from above orbital plane
View from above satellite
View from above satellite

Ground track
Ground track

The orbit data is extracted from the following two-line orbital elements,

1 40907U 15049J   24194.48971091  .00054557  00000-0  88095-3 0  9997
2 40907  97.4711 214.7910 0007780 176.6146 183.5161 15.52679336488628
Epoch (UTC): 12 July 2024 11:45:11
Eccentricity: 0.0007780
inclination: 97.4711°
perigee height: 403 km
apogee height: 414 km
right ascension of ascending node: 214.7910°
argument of perigee: 176.6146°
revolutions per day: 15.52679336
mean anomaly at epoch: 183.5161°
orbit number at epoch: 48862

The dashed part of the orbit path shows where the satellite is in the earth's shadow,  

DLR